パンスターズ彗星

C/2017 Y1 ( PanSTARRS )

English version
Home page
Updated on May 20, 2019

---------------------------------------------------------------------

・ プロフィール

発見日 2017年12月24日
発見光度 20.6等
発見者 Pan-STARRS 1 telescope (Haleakala)

・ 軌道要素

Epoch 2017 Sept. 4.0 TT = JDT 2458000.5
T 2017 Aug. 31.47092 TT                                 MPCW
q   3.7185877            (2000.0)            P               Q
z  +0.0002191      Peri.  134.44545     -0.10349022     -0.75143408
 +/-0.0000032      Node   307.51209     +0.50373754     +0.52532335
e   0.9991853      Incl.   55.23615     +0.85763527     -0.39922701
From 86 observations 2017 Dec. 24-2019 Apr. 4, mean residual 0".5.

・ 光度変化

        m1 = 10.5 + 5 logΔ + 10.0 log r

---------------------------------------------------------------------

軌道要素はM.P.E.C. 2019-J142に掲載されたものです。
光度グラフはComet for Windowsで作成したものです。

---------------------------------------------------------------------

Copyright(C) Seiichi Yoshida (comet@aerith.net). All rights reserved.